| time (UTC) | temp F | wind direction | speed knots | gust knots | rain 1hr in | rain 24hr in | rain mn in | humidity % | barometer mb |
| 20260506043705 | 50 | 281 | 0.0 | 0.0 | 0.06 | 0.94 | 0.03 | 97 | 1037.2 |
| 20260506043204 | 50 | 281 | 0.0 | 0.0 | 0.07 | 0.94 | 0.03 | 97 | 1037.2 |
| 20260506042705 | 50 | 281 | 0.0 | 0.0 | 0.07 | 0.93 | 0.02 | 97 | 1037.3 |
| 20260506042205 | 50 | 281 | 0.0 | 0.0 | 0.07 | 0.93 | 0.02 | 97 | 1037.3 |
| 20260506041705 | 50 | 281 | 0.0 | 0.0 | 0.07 | 0.92 | 0.01 | 97 | 1037.2 |
| 20260506041204 | 50 | 281 | 0.0 | 0.0 | 0.08 | 0.92 | 0.01 | 97 | 1037.0 |
| 20260506040204 | 50 | 281 | 0.0 | 0.0 | 0.09 | 0.91 | 0.00 | 97 | 1037.4 |
| 20260506035705 | 50 | 281 | 0.0 | 0.0 | 0.10 | 0.91 | 0.91 | 97 | 1037.5 |
| 20260506035204 | 51 | 281 | 0.0 | 0.0 | 0.10 | 0.90 | 0.90 | 97 | 1037.6 |
| 20260506034704 | 51 | 281 | 0.0 | 0.0 | 0.11 | 0.90 | 0.90 | 97 | 1037.7 |
| 20260506034204 | 51 | 281 | 0.0 | 0.0 | 0.11 | 0.89 | 0.89 | 97 | 1037.6 |
| 20260506033705 | 51 | 281 | 0.0 | 0.0 | 0.11 | 0.88 | 0.88 | 97 | 1037.4 |
| 20260506033204 | 51 | 281 | 0.0 | 0.0 | 0.11 | 0.87 | 0.87 | 97 | 1037.2 |
| 20260506032704 | 50 | 281 | 0.0 | 0.0 | 0.12 | 0.87 | 0.87 | 97 | 1037.1 |
| 20260506031705 | 50 | 281 | 0.0 | 0.0 | 0.13 | 0.85 | 0.85 | 97 | 1036.8 |
| 20260506031205 | 50 | 281 | 0.0 | 0.0 | 0.14 | 0.85 | 0.85 | 97 | 1036.7 |
| 20260506030704 | 50 | 281 | 0.0 | 0.0 | 0.15 | 0.84 | 0.84 | 97 | 1036.7 |
| 20260506030205 | 50 | 281 | 0.0 | 0.0 | 0.15 | 0.83 | 0.83 | 97 | 1036.9 |
| 20260506025704 | 50 | 281 | 0.0 | 0.0 | 0.15 | 0.81 | 0.81 | 97 | 1037.0 |
| 20260506025205 | 50 | 281 | 0.0 | 0.0 | 0.16 | 0.80 | 0.80 | 97 | 1037.0 |
| 20260506024704 | 50 | 281 | 0.0 | 0.0 | 0.15 | 0.79 | 0.79 | 97 | 1037.1 |
| 20260506024205 | 50 | 281 | 0.0 | 0.0 | 0.15 | 0.78 | 0.78 | 97 | 1037.2 |
| 20260506023704 | 50 | 281 | 0.0 | 0.0 | 0.14 | 0.77 | 0.77 | 97 | 1037.2 |
| 20260506023204 | 50 | 281 | 0.0 | 0.0 | 0.14 | 0.76 | 0.76 | 97 | 1037.1 |
| 20260506022704 | 50 | 281 | 0.0 | 0.0 | 0.13 | 0.75 | 0.75 | 97 | 1037.1 |
| 20260506022205 | 50 | 281 | 0.0 | 0.0 | 0.12 | 0.74 | 0.74 | 97 | 1037.1 |
| 20260506021704 | 50 | 281 | 0.0 | 0.0 | 0.10 | 0.72 | 0.72 | 98 | 1037.1 |
| 20260506021205 | 51 | 281 | 0.0 | 0.0 | 0.09 | 0.71 | 0.71 | 98 | 1037.2 |
| 20260506020704 | 50 | 281 | 0.0 | 0.0 | 0.08 | 0.69 | 0.69 | 98 | 1037.2 |
| 20260506015704 | 50 | 281 | 0.0 | 0.0 | 0.06 | 0.66 | 0.66 | 98 | 1036.9 |
| 20260506015205 | 50 | 281 | 0.0 | 0.0 | 0.04 | 0.64 | 0.64 | 98 | 1036.7 |
| 20260506014704 | 50 | 281 | 0.0 | 0.0 | 0.04 | 0.64 | 0.64 | 98 | 1036.7 |
| 20260506014204 | 50 | 281 | 0.0 | 0.0 | 0.03 | 0.63 | 0.63 | 98 | 1036.7 |
| 20260506013205 | 50 | 281 | 0.0 | 0.0 | 0.05 | 0.62 | 0.62 | 98 | 1036.6 |
| 20260506012704 | 50 | 281 | 0.0 | 0.0 | 0.06 | 0.62 | 0.62 | 98 | 1036.5 |
| 20260506012205 | 50 | 281 | 0.0 | 0.0 | 0.07 | 0.62 | 0.62 | 98 | 1036.6 |
| 20260506011704 | 50 | 281 | 0.0 | 0.0 | 0.08 | 0.62 | 0.62 | 98 | 1036.5 |
| 20260506011205 | 50 | 281 | 0.0 | 0.0 | 0.09 | 0.62 | 0.62 | 98 | 1036.6 |
| 20260506010704 | 50 | 281 | 0.0 | 0.0 | 0.10 | 0.61 | 0.61 | 98 | 1036.5 |
| 20260506010205 | 50 | 281 | 0.0 | 0.0 | 0.13 | 0.61 | 0.61 | 98 | 1036.4 |
| 20260506005704 | 50 | 281 | 0.0 | 0.0 | 0.17 | 0.60 | 0.60 | 98 | 1036.4 |
| 20260506005205 | 50 | 281 | 0.0 | 0.0 | 0.22 | 0.60 | 0.60 | 98 | 1036.3 |
| 20260506004704 | 50 | 281 | 0.0 | 0.0 | 0.25 | 0.60 | 0.60 | 98 | 1036.4 |
| 20260506004205 | 50 | 281 | 0.0 | 0.0 | 0.26 | 0.60 | 0.60 | 98 | 1036.4 |
| 20260506003704 | 50 | 281 | 0.0 | 0.0 | 0.24 | 0.58 | 0.58 | 98 | 1036.6 |
| 20260506002704 | 50 | 281 | 0.0 | 0.0 | 0.23 | 0.56 | 0.56 | 98 | 1036.5 |
| 20260506002205 | 50 | 281 | 0.0 | 0.0 | 0.23 | 0.55 | 0.55 | 98 | 1036.9 |
| 20260506001704 | 50 | 281 | 0.0 | 0.0 | 0.22 | 0.54 | 0.54 | 99 | 1037.0 |
| 20260506001204 | 50 | 281 | 0.0 | 0.0 | 0.21 | 0.53 | 0.53 | 99 | 1036.9 |
| 20260506000205 | 51 | 281 | 0.0 | 0.0 | 0.17 | 0.48 | 0.48 | 99 | 1036.9 |
| 20260505235704 | 51 | 281 | 0.0 | 0.0 | 0.12 | 0.43 | 0.43 | 99 | 1037.2 |
| 20260505235204 | 50 | 304 | 0.0 | 0.0 | 0.07 | 0.38 | 0.38 | 99 | 1036.7 |
| 20260505234704 | 50 | 304 | 0.0 | 0.0 | 0.05 | 0.35 | 0.35 | 99 | 1036.6 |
| 20260505233704 | 50 | 304 | 0.0 | 0.0 | 0.05 | 0.34 | 0.34 | 99 | 1036.4 |
| 20260505232704 | 50 | 304 | 0.0 | 0.0 | 0.04 | 0.33 | 0.33 | 99 | 1036.6 |
| 20260505232204 | 50 | 304 | 0.0 | 0.0 | 0.04 | 0.32 | 0.32 | 99 | 1036.5 |
| 20260505231704 | 51 | 304 | 0.0 | 0.0 | 0.04 | 0.32 | 0.32 | 99 | 1036.6 |
| 20260505231204 | 51 | 304 | 0.0 | 0.0 | 0.04 | 0.32 | 0.32 | 99 | 1036.3 |
| 20260505230705 | 51 | 304 | 0.0 | 0.0 | 0.04 | 0.32 | 0.32 | 99 | 1036.6 |
| 20260505230204 | 51 | 304 | 0.0 | 0.0 | 0.08 | 0.31 | 0.31 | 99 | 1036.7 |
| 20260505225205 | 52 | 297 | 0.0 | 0.0 | 0.18 | 0.31 | 0.31 | 100 | 1036.5 |
| 20260505224205 | 52 | 297 | 0.0 | 0.0 | 0.19 | 0.29 | 0.29 | 100 | 1036.8 |
| 20260505223704 | 52 | 297 | 0.0 | 0.0 | 0.19 | 0.29 | 0.29 | 100 | 1036.4 |
| 20260505222704 | 53 | 297 | 0.0 | 0.0 | 0.19 | 0.29 | 0.29 | 100 | 1036.4 |
| 20260505222205 | 53 | 297 | 0.0 | 0.0 | 0.19 | 0.28 | 0.28 | 100 | 1036.4 |
| 20260505220704 | 54 | 300 | 0.0 | 0.0 | 0.26 | 0.28 | 0.28 | 100 | 1036.3 |
| 20260505220204 | 55 | 312 | 0.0 | 0.0 | 0.22 | 0.23 | 0.23 | 100 | 1036.1 |
| 20260505215705 | 55 | 295 | 0.0 | 0.0 | 0.18 | 0.18 | 0.18 | 100 | 1036.7 |
| 20260505215204 | 56 | 301 | 0.0 | 0.0 | 0.13 | 0.13 | 0.13 | 100 | 1036.2 |
| 20260505214704 | 57 | 294 | 0.0 | 0.0 | 0.10 | 0.10 | 0.10 | 100 | 1036.0 |
| 20260505214204 | 57 | 279 | 0.0 | 0.0 | 0.10 | 0.10 | 0.10 | 100 | 1035.7 |
| 20260505213704 | 57 | 279 | 0.0 | 0.0 | 0.10 | 0.10 | 0.10 | 100 | 1035.7 |
| 20260505213205 | 57 | 279 | 0.0 | 0.0 | 0.10 | 0.10 | 0.10 | 100 | 1035.7 |
| 20260505212704 | 58 | 279 | 0.0 | 0.0 | 0.10 | 0.10 | 0.10 | 100 | 1035.6 |
| 20260505212205 | 58 | 279 | 0.0 | 0.0 | 0.09 | 0.09 | 0.09 | 100 | 1035.5 |
| 20260505211705 | 58 | 279 | 0.0 | 0.0 | 0.06 | 0.06 | 0.06 | 100 | 1035.7 |
| 20260505211204 | 58 | 279 | 0.0 | 0.0 | 0.05 | 0.05 | 0.05 | 100 | 1035.7 |
| 20260505210704 | 58 | 279 | 0.0 | 0.0 | 0.02 | 0.02 | 0.02 | 100 | 1035.7 |
| 20260505210204 | 58 | 279 | 0.0 | 0.0 | 0.01 | 0.01 | 0.01 | 100 | 1035.6 |
| 20260505205705 | 59 | 275 | 0.0 | 0.0 | 0.00 | 0.00 | 0.00 | 100 | 1035.6 |
| 20260505205204 | 59 | 275 | 0.0 | 0.0 | 0.00 | 0.00 | 0.00 | 100 | 1035.5 |
| 20260505204704 | 59 | 275 | 0.0 | 0.0 | 0.00 | 0.00 | 0.00 | 100 | 1035.5 |
| 20260505204204 | 60 | 275 | 0.0 | 0.0 | 0.00 | 0.00 | 0.00 | 100 | 1035.5 |
| 20260505203705 | 60 | 275 | 0.0 | 0.0 | 0.00 | 0.00 | 0.00 | 100 | 1035.5 |
| 20260505203204 | 60 | 275 | 0.0 | 0.0 | 0.00 | 0.00 | 0.00 | 100 | 1035.4 |
| 20260505202705 | 60 | 275 | 0.0 | 0.0 | 0.00 | 0.00 | 0.00 | 100 | 1035.5 |
| 20260505202204 | 61 | 275 | 0.0 | 0.0 | 0.00 | 0.00 | 0.00 | 100 | 1035.4 |
| 20260505201704 | 61 | 275 | 0.0 | 0.0 | 0.00 | 0.00 | 0.00 | 100 | 1035.4 |
| 20260505201204 | 61 | 275 | 0.0 | 0.0 | 0.00 | 0.00 | 0.00 | 100 | 1035.4 |
| 20260505200704 | 62 | 275 | 0.0 | 0.0 | 0.00 | 0.00 | 0.00 | 100 | 1035.3 |
| 20260505200205 | 62 | 275 | 0.0 | 0.0 | 0.00 | 0.00 | 0.00 | 100 | 1035.4 |
| 20260505195704 | 62 | 275 | 0.0 | 0.0 | 0.00 | 0.00 | 0.00 | 100 | 1035.6 |
| 20260505195204 | 62 | 275 | 0.0 | 0.0 | 0.00 | 0.00 | 0.00 | 100 | 1035.5 |
| 20260505194705 | 62 | 275 | 0.0 | 0.0 | 0.00 | 0.00 | 0.00 | 100 | 1035.5 |
| 20260505193705 | 63 | 275 | 0.0 | 0.0 | 0.00 | 0.00 | 0.00 | 100 | 1035.5 |
| 20260505193204 | 63 | 276 | 0.0 | 0.0 | 0.00 | 0.00 | 0.00 | 100 | 1035.6 |
| 20260505192204 | 64 | 262 | 0.0 | 0.0 | 0.00 | 0.00 | 0.00 | 100 | 1035.4 |
| 20260505191704 | 65 | 265 | 0.0 | 0.0 | 0.00 | 0.00 | 0.00 | 100 | 1035.3 |
| 20260505191204 | 65 | 268 | 0.0 | 0.0 | 0.00 | 0.00 | 0.00 | 100 | 1035.4 |
| 20260505190705 | 65 | 273 | 0.0 | 0.0 | 0.00 | 0.00 | 0.00 | 100 | 1035.4 |
| 20260505190204 | 65 | 273 | 0.0 | 0.0 | 0.00 | 0.00 | 0.00 | 100 | 1035.3 |
| 20260505185704 | 65 | 271 | 0.0 | 0.0 | 0.00 | 0.00 | 0.00 | 100 | 1035.3 |
| 20260505185205 | 65 | 271 | 0.0 | 0.0 | 0.00 | 0.00 | 0.00 | 100 | 1035.4 |
| 20260505184704 | 65 | 271 | 0.0 | 0.0 | 0.00 | 0.00 | 0.00 | 100 | 1035.4 |
| 20260505184205 | 65 | 284 | 0.0 | 0.0 | 0.00 | 0.00 | 0.00 | 100 | 1035.4 |
| 20260505183704 | 65 | 270 | 0.0 | 0.0 | 0.00 | 0.00 | 0.00 | 100 | 1035.5 |
| 20260505183205 | 65 | 276 | 0.0 | 0.0 | 0.00 | 0.00 | 0.00 | 100 | 1035.5 |
| 20260505182204 | 65 | 283 | 0.0 | 0.0 | 0.00 | 0.00 | 0.00 | 100 | 1035.4 |
| 20260505181704 | 65 | 276 | 0.0 | 0.0 | 0.00 | 0.00 | 0.00 | 100 | 1035.5 |
| 20260505181204 | 65 | 277 | 0.0 | 0.0 | 0.00 | 0.00 | 0.00 | 100 | 1035.4 |
| 20260505180705 | 65 | 281 | 0.0 | 0.0 | 0.00 | 0.00 | 0.00 | 100 | 1035.3 |
| 20260505180204 | 65 | 300 | 0.0 | 0.0 | 0.00 | 0.00 | 0.00 | 100 | 1035.4 |
| 20260505175704 | 66 | 284 | 0.0 | 0.0 | 0.00 | 0.00 | 0.00 | 100 | 1035.3 |
| 20260505173704 | 65 | 267 | 0.0 | 0.0 | 0.00 | 0.00 | 0.00 | 100 | 1035.0 |
| 20260505173204 | 65 | 262 | 0.0 | 0.0 | 0.00 | 0.00 | 0.00 | 99 | 1035.0 |
| 20260505172705 | 66 | 293 | 0.0 | 0.0 | 0.00 | 0.00 | 0.00 | 99 | 1035.0 |
| 20260505172204 | 67 | 290 | 0.0 | 0.0 | 0.00 | 0.00 | 0.00 | 98 | 1035.0 |
| 20260505171704 | 68 | 285 | 0.0 | 0.0 | 0.00 | 0.00 | 0.00 | 96 | 1034.8 |
| 20260505171204 | 69 | 272 | 0.0 | 0.0 | 0.00 | 0.00 | 0.00 | 95 | 1034.6 |
| 20260505170705 | 70 | 258 | 0.0 | 0.0 | 0.00 | 0.00 | 0.00 | 94 | 1034.6 |
| 20260505170204 | 70 | 246 | 0.0 | 0.0 | 0.00 | 0.00 | 0.00 | 94 | 1034.3 |
| 20260505165705 | 70 | 243 | 0.0 | 0.0 | 0.00 | 0.00 | 0.00 | 93 | 1034.2 |
| 20260505165204 | 71 | 240 | 0.0 | 0.0 | 0.00 | 0.00 | 0.00 | 93 | 1034.2 |
| 20260505164705 | 72 | 236 | 0.0 | 0.0 | 0.00 | 0.00 | 0.00 | 92 | 1034.1 |
| 20260505164204 | 72 | 207 | 0.0 | 0.0 | 0.00 | 0.00 | 0.00 | 92 | 1034.1 |
| 20260505163704 | 73 | 202 | 0.0 | 0.0 | 0.00 | 0.00 | 0.00 | 92 | 1034.2 |
| 20260505163204 | 73 | 205 | 0.0 | 0.0 | 0.00 | 0.00 | 0.00 | 92 | 1034.2 |
| 20260505162705 | 73 | 208 | 0.0 | 0.0 | 0.00 | 0.00 | 0.00 | 91 | 1034.2 |
| 20260505162204 | 73 | 267 | 0.0 | 0.0 | 0.00 | 0.00 | 0.00 | 92 | 1034.1 |
| 20260505161704 | 72 | 254 | 0.0 | 0.0 | 0.00 | 0.00 | 0.00 | 93 | 1034.3 |
| 20260505161204 | 71 | 214 | 0.0 | 0.0 | 0.00 | 0.00 | 0.00 | 92 | 1034.4 |
| 20260505160705 | 71 | 216 | 0.0 | 0.0 | 0.00 | 0.00 | 0.00 | 93 | 1034.3 |
| 20260505153204 | 70 | 222 | 0.0 | 0.0 | 0.00 | 0.00 | 0.00 | 95 | 1034.1 |
| 20260505152704 | 69 | 217 | 0.0 | 0.0 | 0.00 | 0.00 | 0.00 | 96 | 1034.4 |
| 20260505152204 | 69 | 246 | 0.0 | 0.0 | 0.00 | 0.00 | 0.00 | 96 | 1034.4 |
| 20260505151705 | 68 | 205 | 0.0 | 0.0 | 0.00 | 0.00 | 0.00 | 98 | 1034.5 |
| 20260505151204 | 68 | 235 | 0.0 | 0.0 | 0.00 | 0.00 | 0.00 | 98 | 1034.5 |
| 20260505150705 | 68 | 235 | 0.0 | 0.0 | 0.00 | 0.00 | 0.00 | 97 | 1034.4 |
| 20260505150204 | 68 | 199 | 0.0 | 0.0 | 0.00 | 0.00 | 0.00 | 97 | 1034.2 |
| 20260505140204 | 66 | 206 | 0.0 | 0.0 | 0.00 | 0.00 | 0.00 | 100 | 1034.0 |
| 20260505124705 | 64 | 185 | 0.0 | 0.0 | 0.00 | 0.00 | 0.00 | 100 | 1033.5 |
| 20260505123705 | 64 | 201 | 0.0 | 0.0 | 0.00 | 0.00 | 0.00 | 100 | 1033.3 |
| 20260505122704 | 64 | 206 | 0.0 | 0.0 | 0.00 | 0.00 | 0.00 | 100 | 1033.1 |
| 20260505121704 | 64 | 208 | 0.0 | 0.0 | 0.00 | 0.00 | 0.00 | 100 | 1033.2 |
| 20260505121204 | 65 | 197 | 0.0 | 0.0 | 0.00 | 0.00 | 0.00 | 100 | 1033.3 |
| 20260505120704 | 65 | 217 | 0.0 | 0.0 | 0.00 | 0.00 | 0.00 | 100 | 1033.4 |
| 20260505120204 | 65 | 215 | 0.0 | 0.0 | 0.00 | 0.00 | 0.00 | 100 | 1033.2 |
| 20260505115205 | 65 | 198 | 0.0 | 0.0 | 0.00 | 0.00 | 0.00 | 100 | 1033.1 |
| 20260505114704 | 65 | 212 | 0.0 | 0.0 | 0.00 | 0.00 | 0.00 | 100 | 1033.1 |
| 20260505113704 | 65 | 204 | 0.0 | 0.0 | 0.00 | 0.00 | 0.00 | 100 | 1033.0 |
| 20260505113204 | 65 | 222 | 0.0 | 0.0 | 0.00 | 0.00 | 0.00 | 100 | 1032.9 |
| 20260505112704 | 65 | 200 | 0.0 | 0.0 | 0.00 | 0.00 | 0.00 | 100 | 1032.8 |
| 20260505112204 | 65 | 198 | 0.0 | 0.0 | 0.00 | 0.00 | 0.00 | 100 | 1032.7 |
| 20260505111704 | 65 | 203 | 0.0 | 0.0 | 0.00 | 0.00 | 0.00 | 100 | 1032.7 |
| 20260505110704 | 65 | 212 | 0.0 | 0.0 | 0.00 | 0.00 | 0.00 | 100 | 1032.6 |
| 20260505110204 | 65 | 214 | 0.0 | 0.0 | 0.00 | 0.00 | 0.00 | 100 | 1032.5 |
| 20260505102204 | 65 | 214 | 0.0 | 0.0 | 0.00 | 0.00 | 0.00 | 100 | 1031.9 |
| 20260505101704 | 65 | 215 | 0.0 | 0.0 | 0.00 | 0.00 | 0.00 | 100 | 1031.7 |
| 20260505100704 | 65 | 205 | 0.0 | 0.0 | 0.00 | 0.00 | 0.00 | 100 | 1031.7 |
| 20260505100205 | 65 | 207 | 0.0 | 0.0 | 0.00 | 0.00 | 0.00 | 100 | 1031.7 |
| 20260505095704 | 65 | 203 | 0.0 | 0.0 | 0.00 | 0.00 | 0.00 | 100 | 1031.7 |
| 20260505094204 | 64 | 190 | 0.0 | 0.0 | 0.00 | 0.00 | 0.00 | 100 | 1031.4 |
| 20260505093704 | 64 | 188 | 0.0 | 0.0 | 0.00 | 0.00 | 0.00 | 100 | 1031.4 |
| 20260505093204 | 64 | 188 | 0.0 | 0.0 | 0.00 | 0.00 | 0.00 | 100 | 1031.3 |
| 20260505092704 | 64 | 188 | 0.0 | 0.0 | 0.00 | 0.00 | 0.00 | 100 | 1031.2 |
| 20260505092204 | 64 | 188 | 0.0 | 0.0 | 0.00 | 0.00 | 0.00 | 100 | 1031.3 |
| 20260505091704 | 64 | 188 | 0.0 | 0.0 | 0.00 | 0.00 | 0.00 | 100 | 1031.4 |
| 20260505091204 | 64 | 186 | 0.0 | 0.0 | 0.00 | 0.00 | 0.00 | 100 | 1031.4 |
| 20260505090704 | 65 | 186 | 0.0 | 0.0 | 0.00 | 0.00 | 0.00 | 100 | 1031.4 |
| 20260505090204 | 65 | 196 | 0.0 | 0.0 | 0.00 | 0.00 | 0.00 | 99 | 1031.4 |
| 20260505085704 | 65 | 202 | 0.0 | 0.0 | 0.00 | 0.00 | 0.00 | 100 | 1031.5 |
| 20260505084704 | 65 | 198 | 0.0 | 0.0 | 0.00 | 0.00 | 0.00 | 100 | 1031.6 |
| 20260505084205 | 64 | 192 | 0.0 | 0.0 | 0.00 | 0.00 | 0.00 | 100 | 1031.6 |
| 20260505083704 | 65 | 190 | 0.0 | 0.0 | 0.00 | 0.00 | 0.00 | 100 | 1031.4 |
| 20260505083205 | 64 | 183 | 0.0 | 0.0 | 0.00 | 0.00 | 0.00 | 100 | 1031.4 |
| 20260505082704 | 64 | 191 | 0.0 | 0.0 | 0.00 | 0.00 | 0.00 | 100 | 1031.2 |
| 20260505082205 | 64 | 191 | 0.0 | 0.0 | 0.00 | 0.00 | 0.00 | 100 | 1031.2 |
| 20260505081704 | 64 | 191 | 0.0 | 0.0 | 0.00 | 0.00 | 0.00 | 100 | 1031.2 |
| 20260505081204 | 65 | 191 | 0.0 | 0.0 | 0.00 | 0.00 | 0.00 | 100 | 1031.1 |
| 20260505080704 | 65 | 191 | 0.0 | 0.0 | 0.00 | 0.00 | 0.00 | 100 | 1031.2 |
| 20260505080204 | 65 | 191 | 0.0 | 0.0 | 0.00 | 0.00 | 0.00 | 100 | 1031.1 |
| 20260505075705 | 65 | 191 | 0.0 | 0.0 | 0.00 | 0.00 | 0.00 | 100 | 1031.1 |
| 20260505075204 | 65 | 190 | 0.0 | 0.0 | 0.00 | 0.00 | 0.00 | 100 | 1031.1 |
| 20260505074704 | 65 | 188 | 0.0 | 0.0 | 0.00 | 0.00 | 0.00 | 100 | 1031.1 |
| 20260505074204 | 65 | 195 | 0.0 | 0.0 | 0.00 | 0.00 | 0.00 | 100 | 1031.1 |
| 20260505073704 | 65 | 196 | 0.0 | 0.0 | 0.00 | 0.00 | 0.00 | 100 | 1031.1 |
| 20260505073204 | 65 | 200 | 0.0 | 0.0 | 0.00 | 0.00 | 0.00 | 100 | 1030.9 |
| 20260505072704 | 65 | 201 | 0.0 | 0.0 | 0.00 | 0.00 | 0.00 | 100 | 1031.0 |
| 20260505071705 | 64 | 202 | 0.0 | 0.0 | 0.00 | 0.00 | 0.00 | 100 | 1031.0 |
| 20260505071204 | 64 | 202 | 0.0 | 0.0 | 0.00 | 0.00 | 0.00 | 100 | 1031.0 |
| 20260505070704 | 63 | 202 | 0.0 | 0.0 | 0.00 | 0.00 | 0.00 | 100 | 1031.1 |
| 20260505070204 | 63 | 202 | 0.0 | 0.0 | 0.00 | 0.00 | 0.00 | 100 | 1031.1 |
| 20260505065704 | 63 | 202 | 0.0 | 0.0 | 0.00 | 0.00 | 0.00 | 100 | 1031.1 |
| 20260505065204 | 63 | 202 | 0.0 | 0.0 | 0.00 | 0.00 | 0.00 | 100 | 1031.2 |
| 20260505064705 | 63 | 201 | 0.0 | 0.0 | 0.00 | 0.00 | 0.00 | 100 | 1031.2 |
| 20260505064204 | 63 | 201 | 0.0 | 0.0 | 0.00 | 0.00 | 0.00 | 100 | 1031.2 |
| 20260505063704 | 63 | 201 | 0.0 | 0.0 | 0.00 | 0.00 | 0.00 | 100 | 1031.3 |
| 20260505062704 | 63 | 203 | 0.0 | 0.0 | 0.00 | 0.00 | 0.00 | 100 | 1031.4 |
| 20260505062204 | 63 | 205 | 0.0 | 0.0 | 0.00 | 0.00 | 0.00 | 100 | 1031.5 |
| 20260505061204 | 63 | 205 | 0.0 | 0.0 | 0.00 | 0.00 | 0.00 | 100 | 1031.7 |
| 20260505060705 | 63 | 205 | 0.0 | 0.0 | 0.00 | 0.00 | 0.00 | 100 | 1031.8 |
| 20260505060204 | 62 | 205 | 0.0 | 0.0 | 0.00 | 0.00 | 0.00 | 100 | 1031.9 |
| 20260505055704 | 63 | 205 | 0.0 | 0.0 | 0.00 | 0.00 | 0.00 | 100 | 1031.9 |
| 20260505055204 | 63 | 205 | 0.0 | 0.0 | 0.00 | 0.00 | 0.00 | 100 | 1032.0 |
| 20260505054704 | 63 | 205 | 0.0 | 0.0 | 0.00 | 0.00 | 0.00 | 100 | 1032.2 |
| 20260505054204 | 63 | 205 | 0.0 | 0.0 | 0.00 | 0.00 | 0.00 | 100 | 1032.3 |
| 20260505053705 | 63 | 205 | 0.0 | 0.0 | 0.00 | 0.00 | 0.00 | 100 | 1032.3 |
| 20260505053204 | 63 | 205 | 0.0 | 0.0 | 0.00 | 0.00 | 0.00 | 100 | 1032.3 |
| 20260505052704 | 64 | 205 | 0.0 | 0.0 | 0.00 | 0.00 | 0.00 | 100 | 1032.3 |
| 20260505052204 | 64 | 205 | 0.0 | 0.0 | 0.00 | 0.00 | 0.00 | 100 | 1032.4 |
| 20260505051705 | 64 | 207 | 0.0 | 0.0 | 0.00 | 0.00 | 0.00 | 100 | 1032.6 |
| 20260505051204 | 64 | 211 | 0.0 | 0.0 | 0.00 | 0.00 | 0.00 | 100 | 1032.8 |
| 20260505050704 | 65 | 211 | 0.0 | 0.0 | 0.00 | 0.00 | 0.00 | 100 | 1032.8 |
| 20260505050204 | 65 | 187 | 0.0 | 0.0 | 0.00 | 0.00 | 0.00 | 99 | 1032.6 |